Regional Weather Roundup
Issued by NWS Lake Charles, LA

Home | Current Version | Previous Version | Text Only | Print | Product List | Glossary On
Versions: 1 2 3 4 5 6 7 8 9 10 11 12 13 14 15 16 17 18 19 20 21 22 23 24 25 26 27 28 29 30 31 32 33 34 35 36 37 38 39 40 41 42 43 44 45 46 47 48 49 50
000
ASUS44 KLCH 280210
RWRLCH
RWRLCH
REGIONAL WEATHER ROUNDUP
NATIONAL WEATHER SERVICE LAKE CHARLES LA
900 PM CDT THU AUG 27 2015

Note: "fair" indicates few or no clouds below 12,000 feet with no
significant weather and/or obstructions to visibility.


ACROSS SOUTHEAST TEXAS

CITY           SKY/WX    TMP DP  RH WIND       PRES   REMARKS
BEAUMONT       CLEAR     74  68  81 CALM      29.97R
BEAUMONT CITY    N/A     75  72  89 CALM      29.98S
ORANGE         CLEAR    N/A N/A N/A CALM      29.99R
JASPER         CLEAR     76  69  79 CALM      30.02R
$$

ACROSS CENTRAL LOUISIANA

CITY           SKY/WX    TMP DP  RH WIND       PRES   REMARKS
LEESVILLE      CLEAR     75  65  70 N5        29.98R
FULLERTON        N/A     72  61  68 CALM      29.97R
ALEXANDRIA INT CLEAR     75  59  57 NE3       29.97R
ESLER FIELD    CLEAR     71  59  65 CALM      30.00R
DERIDDER         N/A     74  63  68 CALM      30.00S
OAKDALE          N/A     69  67  94 CALM      29.98S
OPELOUSAS        N/A     69  63  81 CALM      29.98S
$$

ACROSS SOUTHWEST AND SOUTH CENTRAL LOUISIANA

CITY           SKY/WX    TMP DP  RH WIND       PRES   REMARKS
SULPHUR        CLEAR     77  64  64 CALM      29.99R
LAKE CHARLES   CLEAR     75  67  76 CALM      29.98R
CHENNAULT INT  CLEAR     77  66  69 CALM      29.98R
CAMERON PHI    CLEAR     79  64  61 E6        30.01R
DEQUINCY         N/A     73  65  76 CALM      29.99R
JENNINGS         N/A     74  65  73 CALM      29.98R
LAFAYETTE      CLEAR     73  67  81 CALM      29.98R
NEW IBERIA     CLEAR     71  65  81 CALM      29.99R
ABBEVILLE        N/A     70  62  75 CALM      29.99R
PATTERSON      CLEAR     72  64  78 CALM      30.00R
SALT POINT       N/A     75  64  68 CALM      29.97R
$$

SELECTED SITES ACROSS THE REGION

CITY           SKY/WX    TMP DP  RH WIND       PRES   REMARKS
HOUSTON BUSH   MOCLDY    77  68  73 S3        29.97S
HOUSTON HOBBY  MOCLDY    80  67  64 S5        29.97R
GALVESTON      PTCLDY    82  68  62 SE5       29.99R
COLLEGE STAT   PTCLDY    82  67  60 CALM      29.98R
CONROE         PTCLDY    76  69  79 CALM      29.99R
HUNTSVILLE     PTCLDY    82  60  47 CALM      29.99S
LUFKIN         CLEAR     78  63  59 NE5       30.00R
SHREVEPORT     PTCLDY    76  63  64 NE7       30.01R
MONROE         PTCLDY    73  58  59 NE6       30.02R
NATCHEZ MS     CLEAR     70  59  68 CALM      30.01S
BATON ROUGE    CLEAR     73  64  73 CALM      29.98R
N.O. INTL ARPT PTCLDY    80  57  45 CALM      29.98R
SLIDELL        CLEAR     73  67  81 CALM      29.98R
$$

MARINE REPORTS

STATION/POSITION TIME  TEMP    WIND        PRES    VSBY  WAVE
                       AIR SEA DIR/SP/G                  HT/PER
                 (UTC) (F)     (DEG/KT/KT) (MB)    (MI)  (FT/S)
BUOY 30 S HIGH I 0150   84 86  130/  2/  2 1015.0R         1/ 4
SEA RIM ST PARK  0200   81     270/  5/  5 1015.7R
PORT ARTHUR      0100      87  350/  3/  4 1014.9F
SABINE PASS N    0100   84 85  290/  2/  5 1015.0F
TEXAS POINT      NOT AVBL
CALCASIEU PASS   0100   82 85   90/  8/  8 1014.0F
LK CHARLES BEACH 0100   85 87                N/A
MARSH ISLAND     0100   83      60/ 13/ 15   N/A           0
FRESH WATER LOCK 0100   78 85   60/  5/  6 1014.9F
AMERADA PASS     0100   78 85  310/  3/  4 1014.9F
$$



USA.gov is the U.S. government's official web portal to all federal, state and local government web resources and services.